FW0880 Weather Reports


time (UTC)temp
C
wind
direction
speed
KPH
gust
KPH
rain 1hr
cm
rain 24hr
cm
rain mn
cm
humidity
%
barometer
mb
20260506084636 26 134 0.0 3.2 0.00 0.00 0.00 78 1008.0
20260506084019 26 134 1.6 4.8 0.00 0.00 0.00 78 1008.1
20260506083536 26 134 1.6 4.8 0.00 0.00 0.00 79 1008.2
20260506083125 26 110 1.6 4.8 0.00 0.00 0.00 79 1008.2
20260506082515 26 67 0.0 6.4 0.00 0.00 0.00 79 1008.2
20260506082057 26 59 1.6 6.4 0.00 0.00 0.00 79 1008.3
20260506081613 26 28 0.0 3.2 0.00 0.00 0.00 80 1008.3
20260506081022 26 28 0.0 3.2 0.00 0.00 0.00 80 1008.4
20260506080536 26 28 0.0 4.8 0.00 0.00 0.00 80 1008.4
20260506080130 27 28 1.6 4.8 0.00 0.00 0.00 80 1008.5
20260506073529 26 317 1.6 4.8 0.00 0.00 0.00 81 1008.5
20260506073057 26 306 0.0 4.8 0.00 0.00 0.00 81 1008.6
20260506072613 26 305 1.6 4.8 0.00 0.00 0.00 81 1008.7
20260506072002 26 309 3.2 4.8 0.00 0.00 0.00 82 1008.7
20260506071519 26 316 1.6 4.8 0.00 0.00 0.00 82 1008.7
20260506071055 26 275 1.6 4.8 0.00 0.00 0.00 82 1008.7
20260506070617 26 257 1.6 4.8 0.00 0.00 0.00 82 1008.7
20260506062009 27 223 1.6 4.8 0.00 0.00 0.00 81 1009.1
20260506061524 27 266 1.6 8.0 0.00 0.00 0.00 81 1009.2
20260506061055 27 242 3.2 8.0 0.00 0.00 0.00 82 1009.2
20260506060615 27 219 1.6 8.0 0.00 0.00 0.00 81 1009.2
20260506060143 27 219 3.2 8.0 0.00 0.00 0.00 81 1009.2
20260506051001 27 203 1.6 6.4 0.00 0.00 0.00 82 1009.2
20260506050521 27 184 1.6 6.4 0.00 0.00 0.00 82 1009.2
20260506045108 27 248 1.6 6.4 0.00 0.00 0.00 82 1009.2
20260506044622 27 195 4.8 6.4 0.00 0.00 0.00 82 1009.3
20260506044013 27 229 3.2 8.0 0.00 0.00 0.00 82 1009.2
20260506043533 27 188 1.6 6.4 0.00 0.00 0.00 82 1009.2
20260506043059 27 188 3.2 6.4 0.00 0.00 0.00 82 1009.1
20260506042615 27 173 0.0 6.4 0.00 0.00 0.00 82 1009.1
20260506042007 27 200 1.6 6.4 0.00 0.00 0.00 82 1009.1
20260506041530 27 191 1.6 8.0 0.00 0.00 0.00 82 1009.1
20260506041057 27 177 3.2 8.0 0.00 0.00 0.00 82 1009.2
20260506040619 27 181 1.6 9.7 0.00 0.00 0.00 82 1009.1
20260506040039 27 178 4.8 9.7 0.00 0.00 0.00 81 1009.2
20260506035531 27 198 1.6 11.3 0.00 0.00 0.00 81 1009.2
20260506035101 27 200 4.8 12.9 0.00 0.00 0.00 81 1009.2
20260506034623 27 198 1.6 6.4 0.00 0.00 0.00 81 1009.2
20260506034008 27 230 1.6 6.4 0.00 0.00 0.00 80 1009.0
20260506033529 27 231 1.6 8.0 0.00 0.00 0.00 80 1009.0
20260506033100 27 247 3.2 8.0 0.00 0.00 0.00 80 1008.9
20260506032613 27 203 0.0 6.4 0.00 0.00 0.00 80 1008.9
20260506032008 27 194 4.8 9.7 0.00 0.00 0.00 80 1008.9
20260506031525 27 180 3.2 6.4 0.00 0.00 0.00 80 1008.8
20260506031051 27 186 3.2 6.4 0.00 0.00 0.00 80 1008.8
20260506030608 27 202 1.6 6.4 0.00 0.00 0.00 80 1008.9
20260506030009 27 244 1.6 9.7 0.00 0.00 0.00 80 1008.8
20260506025529 27 180 1.6 9.7 0.00 0.00 0.00 80 1008.8
20260506025100 27 194 1.6 9.7 0.00 0.00 0.00 80 1008.8
20260506024615 27 196 4.8 9.7 0.00 0.00 0.00 80 1008.7
20260506024131 27 182 4.8 9.7 0.00 0.00 0.00 80 1008.6
20260506023513 27 177 4.8 9.7 0.00 0.00 0.00 80 1008.6
20260506023110 27 192 3.2 9.7 0.00 0.00 0.00 80 1008.4
20260506022622 27 208 1.6 8.0 0.00 0.00 0.00 80 1008.4
20260506022012 27 186 3.2 14.5 0.00 0.00 0.00 80 1008.4
20260506021543 27 242 3.2 14.5 0.00 0.00 0.00 80 1008.3
20260506021053 27 213 3.2 11.3 0.00 0.00 0.00 80 1008.2
20260506020614 27 209 4.8 11.3 0.00 0.00 0.00 80 1008.1
20260506020015 27 210 3.2 14.5 0.00 0.00 0.00 80 1008.1
20260506015536 27 232 4.8 14.5 0.00 0.00 0.00 80 1008.0
20260506015105 27 213 6.4 12.9 0.00 0.00 0.00 80 1008.0
20260506014624 27 207 3.2 11.3 0.00 0.00 0.00 80 1007.9
20260506014009 27 180 3.2 11.3 0.00 0.00 0.00 79 1007.7
20260506013528 27 232 3.2 11.3 0.00 0.00 0.00 79 1007.6
20260506013107 27 194 4.8 11.3 0.00 0.00 0.00 79 1007.6
20260506012617 27 257 3.2 8.0 0.00 0.00 0.00 79 1007.4
20260506012013 27 217 4.8 8.0 0.00 0.00 0.00 79 1007.3
20260506011533 27 232 3.2 11.3 0.00 0.00 0.00 79 1007.2
20260506011103 27 193 6.4 11.3 0.00 0.00 0.00 79 1007.1
20260506010619 27 236 3.2 9.7 0.00 0.00 0.00 79 1007.1
20260506010036 27 190 3.2 12.9 0.00 0.00 0.00 79 1007.0
20260506005540 27 223 4.8 16.1 0.00 0.00 0.00 79 1007.0
20260506005100 27 189 3.2 19.3 0.00 0.00 0.00 79 1007.0
20260506004626 27 189 3.2 19.3 0.00 0.00 0.00 79 1006.9
20260506004017 27 163 4.8 16.1 0.00 0.00 0.00 79 1006.9
20260506003535 27 189 8.0 19.3 0.00 0.00 0.00 79 1006.9
20260506003109 27 201 8.0 19.3 0.00 0.00 0.00 78 1006.8
20260506002624 27 197 9.7 16.1 0.00 0.00 0.00 78 1006.9
20260506002012 27 246 6.4 19.3 0.00 0.00 0.00 78 1006.9
20260506001536 27 185 8.0 17.7 0.00 0.00 0.00 78 1006.8
20260506001101 27 208 8.0 17.7 0.00 0.00 0.00 77 1006.8
20260506000615 27 163 9.7 14.5 0.00 0.00 0.00 77 1006.8
20260506000012 28 188 8.0 16.1 0.00 0.00 0.00 77 1006.8
20260505235535 28 221 6.4 14.5 0.00 0.00 0.00 77 1006.8
20260505235059 28 196 8.0 17.7 0.00 0.00 0.00 77 1006.8
20260505234617 28 202 8.0 24.1 0.00 0.00 0.00 76 1006.7
20260505234019 28 198 9.7 24.1 0.00 0.00 0.00 76 1006.7
20260505233530 28 256 8.0 16.1 0.00 0.00 0.00 76 1006.9
20260505233106 28 182 6.4 16.1 0.00 0.00 0.00 76 1006.8
20260505232626 28 264 8.0 19.3 0.00 0.00 0.00 75 1006.8
20260505232013 28 244 9.7 19.3 0.00 0.00 0.00 76 1006.8
20260505231544 28 289 8.0 17.7 0.00 0.00 0.00 75 1006.7
20260505231054 28 257 8.0 16.1 0.00 0.00 0.00 76 1006.8
20260505230612 28 271 6.4 17.7 0.00 0.00 0.00 76 1006.8
20260505230023 28 263 6.4 16.1 0.00 0.00 0.00 74 1006.8
20260505225532 29 197 11.3 19.3 0.00 0.00 0.00 74 1006.7
20260505225127 29 360 8.0 19.3 0.00 0.00 0.00 75 1006.7
20260505224515 29 254 8.0 14.5 0.00 0.00 0.00 74 1006.8
20260505224109 29 194 6.4 27.4 0.00 0.00 0.00 74 1006.8
20260505223624 29 235 9.7 27.4 0.00 0.00 0.00 74 1006.9
20260505223012 30 251 6.4 22.5 0.00 0.00 0.00 72 1006.9
20260505222529 30 188 4.8 22.5 0.00 0.00 0.00 72 1007.0
20260505222051 30 227 8.0 16.1 0.00 0.00 0.00 71 1006.9
20260505221609 30 194 8.0 22.5 0.00 0.00 0.00 71 1006.9
20260505221015 30 248 8.0 20.9 0.00 0.00 0.00 71 1006.9
20260505220531 30 240 6.4 22.5 0.00 0.00 0.00 71 1007.0
20260505215612 30 214 9.7 22.5 0.00 0.00 0.00 70 1007.0
20260505215017 30 194 8.0 16.1 0.00 0.00 0.00 70 1007.1
20260505214548 30 248 6.4 17.7 0.00 0.00 0.00 70 1007.2
20260505214059 30 213 8.0 17.7 0.00 0.00 0.00 70 1007.2
20260505213618 30 247 9.7 17.7 0.00 0.00 0.00 70 1007.2
20260505213017 30 208 9.7 19.3 0.00 0.00 0.00 70 1007.3
20260505212531 30 227 8.0 19.3 0.00 0.00 0.00 70 1007.3
20260505212105 30 184 8.0 22.5 0.00 0.00 0.00 70 1007.4
20260505211621 30 207 6.4 22.5 0.00 0.00 0.00 70 1007.5
20260505211001 30 251 8.0 20.9 0.00 0.00 0.00 69 1007.5
20260505210520 30 239 9.7 20.9 0.00 0.00 0.00 70 1007.5
20260505210036 30 202 6.4 17.7 0.00 0.00 0.00 70 1007.6
20260505205527 30 212 8.0 16.1 0.00 0.00 0.00 70 1007.7
20260505205104 30 215 9.7 16.1 0.00 0.00 0.00 70 1007.6
20260505204620 30 205 6.4 17.7 0.00 0.00 0.00 70 1007.8
20260505204032 30 203 8.0 16.1 0.00 0.00 0.00 70 1007.9
20260505203556 30 268 4.8 16.1 0.00 0.00 0.00 71 1007.9
20260505203502 30 212 4.8 16.1 0.00 0.00 0.00 70 1007.9
20260505203001 30 160 4.8 14.5 0.00 0.00 0.00 71 1008.0
20260505202521 30 173 9.7 19.3 0.00 0.00 0.00 71 1008.1
20260505202107 30 211 9.7 19.3 0.00 0.00 0.00 70 1008.1
20260505201623 30 207 8.0 16.1 0.00 0.00 0.00 71 1008.1
20260505201019 30 182 8.0 19.3 0.00 0.00 0.00 71 1008.1
20260505200535 30 263 8.0 19.3 0.00 0.00 0.00 70 1008.2
20260505200051 30 192 8.0 16.1 0.00 0.00 0.00 70 1008.3
20260505195604 30 232 8.0 16.1 0.00 0.00 0.00 69 1008.4
20260505195018 30 202 8.0 16.1 0.00 0.00 0.00 69 1008.4
20260505194538 30 232 6.4 14.5 0.00 0.00 0.00 69 1008.4
20260505194103 31 247 8.0 16.1 0.00 0.00 0.00 68 1008.5
20260505193618 31 287 6.4 14.5 0.00 0.00 0.00 68 1008.5
20260505193007 31 222 4.8 17.7 0.00 0.00 0.00 69 1008.6
20260505192526 31 217 8.0 17.7 0.00 0.00 0.00 67 1008.5
20260505192102 31 360 4.8 16.1 0.00 0.00 0.00 67 1008.6
20260505191620 31 169 6.4 16.1 0.00 0.00 0.00 66 1008.8
20260505191013 31 286 4.8 16.1 0.00 0.00 0.00 67 1008.7
20260505190528 31 294 6.4 16.1 0.00 0.00 0.00 67 1008.8
20260505190038 31 264 4.8 16.1 0.00 0.00 0.00 67 1008.8
20260505185528 31 248 8.0 14.5 0.00 0.00 0.00 66 1008.8
20260505185053 30 200 4.8 19.3 0.00 0.00 0.00 65 1008.9
20260505184612 30 180 8.0 19.3 0.00 0.00 0.00 65 1008.9
20260505184008 30 224 6.4 16.1 0.00 0.00 0.00 66 1009.0
20260505183528 30 232 8.0 17.7 0.00 0.00 0.00 66 1009.0
20260505183050 30 216 8.0 17.7 0.00 0.00 0.00 65 1009.0
20260505182608 30 242 9.7 16.1 0.00 0.00 0.00 64 1009.1
20260505182020 30 175 8.0 16.1 0.00 0.00 0.00 65 1009.2
20260505181543 30 215 8.0 16.1 0.00 0.00 0.00 66 1009.2
20260505181047 30 240 6.4 14.5 0.00 0.00 0.00 66 1009.3
20260505180604 30 248 8.0 12.9 0.00 0.00 0.00 65 1009.3
20260505180011 30 257 6.4 12.9 0.00 0.00 0.00 66 1009.4
20260505175522 30 242 8.0 14.5 0.00 0.00 0.00 67 1009.4
20260505175104 30 226 6.4 14.5 0.00 0.00 0.00 68 1009.4
20260505174624 30 239 6.4 11.3 0.00 0.00 0.00 68 1009.4
20260505174034 30 221 6.4 12.9 0.00 0.00 0.00 65 1009.4
20260505173554 30 227 4.8 11.3 0.00 0.00 0.00 66 1009.4
20260505173009 30 248 6.4 11.3 0.00 0.00 0.00 66 1009.6
20260505172530 30 229 8.0 11.3 0.00 0.00 0.00 66 1009.6
20260505172058 30 229 4.8 11.3 0.00 0.00 0.00 67 1009.7
20260505171616 30 259 4.8 11.3 0.00 0.00 0.00 67 1009.7
20260505171002 30 217 3.2 9.7 0.00 0.00 0.00 67 1009.8
20260505170521 30 265 4.8 11.3 0.00 0.00 0.00 68 1009.9
20260505170105 29 35 4.8 11.3 0.00 0.00 0.00 68 1010.0
20260505165614 30 223 6.4 12.9 0.00 0.00 0.00 68 1010.1
20260505165013 30 217 8.0 12.9 0.00 0.00 0.00 67 1010.1
20260505164528 30 311 4.8 12.9 0.00 0.00 0.00 68 1010.1
20260505164056 30 281 3.2 11.3 0.00 0.00 0.00 67 1010.2
20260505163613 30 225 6.4 11.3 0.00 0.00 0.00 68 1010.2
20260505163004 29 170 3.2 11.3 0.00 0.00 0.00 69 1010.3
20260505162521 29 211 6.4 11.3 0.00 0.00 0.00 69 1010.4
20260505162057 29 296 6.4 11.3 0.00 0.00 0.00 68 1010.4
20260505161618 29 226 3.2 12.9 0.00 0.00 0.00 69 1010.4
20260505161012 28 292 3.2 9.7 0.00 0.00 0.00 70 1010.4
20260505160530 28 290 3.2 11.3 0.00 0.00 0.00 71 1010.4
20260505153110 27 219 4.8 12.9 0.00 0.00 0.00 73 1010.5
20260505152621 27 230 6.4 12.9 0.00 0.00 0.00 73 1010.4
20260505152012 27 220 4.8 8.0 0.00 0.00 0.00 74 1010.3
20260505151545 27 242 3.2 9.7 0.00 0.00 0.00 74 1010.3
20260505151112 27 197 3.2 9.7 0.00 0.00 0.00 74 1010.3
20260505150630 27 209 4.8 9.7 0.00 0.00 0.00 76 1010.3
20260505140625 25 104 0.0 3.2 0.00 0.00 0.00 78 1010.0
20260505124516 23 102 0.0 1.6 0.00 0.00 0.00 74 1009.6
20260505124100 23 102 0.0 1.6 0.00 0.00 0.00 74 1009.5
20260505123613 22 102 0.0 1.6 0.00 0.00 0.00 74 1009.4
20260505123020 23 102 0.0 0.0 0.00 0.00 0.00 76 1009.3
20260505122606 23 102 0.0 0.0 0.00 0.00 0.00 77 1009.3
20260505122008 23 102 0.0 0.0 0.00 0.00 0.00 79 1009.1
20260505121528 23 102 0.0 0.0 0.00 0.00 0.00 80 1009.1
20260505121108 23 102 0.0 0.0 0.00 0.00 0.00 80 1009.1
20260505120623 23 102 0.0 0.0 0.00 0.00 0.00 80 1009.0
20260505120044 23 102 0.0 0.0 0.00 0.00 0.00 80 1009.0
20260505115623 23 102 0.0 0.0 0.00 0.00 0.00 80 1008.9
20260505115036 23 102 0.0 0.0 0.00 0.00 0.00 79 1008.9
20260505114554 23 102 0.0 0.0 0.00 0.00 0.00 79 1008.8
20260505114011 23 102 0.0 0.0 0.00 0.00 0.00 79 1008.8
20260505113525 23 102 0.0 1.6 0.00 0.00 0.00 80 1008.7
20260505113054 23 102 0.0 3.2 0.00 0.00 0.00 80 1008.7
20260505112613 23 102 0.0 3.2 0.00 0.00 0.00 80 1008.7
20260505112007 23 102 0.0 3.2 0.00 0.00 0.00 80 1008.7
20260505111522 23 102 0.0 3.2 0.00 0.00 0.00 81 1008.7
20260505111030 24 102 0.0 3.2 0.00 0.00 0.00 81 1008.7
20260505110543 24 102 0.0 3.2 0.00 0.00 0.00 81 1008.6
20260505102015 24 103 0.0 0.0 0.00 0.00 0.00 80 1008.6
20260505101533 25 103 0.0 0.0 0.00 0.00 0.00 80 1008.7
20260505101056 25 103 0.0 0.0 0.00 0.00 0.00 80 1008.7
20260505100616 25 103 0.0 0.0 0.00 0.00 0.00 80 1008.7
20260505100010 25 103 0.0 0.0 0.00 0.00 0.00 80 1008.8
20260505095529 25 103 0.0 0.0 0.00 0.00 0.00 80 1008.7
20260505095059 25 103 0.0 0.0 0.00 0.00 0.00 80 1008.7
20260505094616 25 103 0.0 0.0 0.00 0.00 0.00 80 1008.7
20260505094011 25 103 0.0 0.0 0.00 0.00 0.00 80 1008.8
20260505093528 25 103 0.0 0.0 0.00 0.00 0.00 80 1008.8
20260505093113 25 103 0.0 0.0 0.00 0.00 0.00 80 1008.7
20260505092626 25 103 0.0 0.0 0.00 0.00 0.00 80 1008.8
20260505092018 25 103 0.0 0.0 0.00 0.00 0.00 79 1008.9
20260505091532 25 103 0.0 0.0 0.00 0.00 0.00 79 1008.9
20260505091100 25 112 0.0 0.0 0.00 0.00 0.00 79 1008.9
20260505090615 25 112 0.0 0.0 0.00 0.00 0.00 79 1008.8
20260505090015 25 112 0.0 0.0 0.00 0.00 0.00 79 1008.9
20260505085531 25 112 0.0 0.0 0.00 0.00 0.00 79 1008.9
20260505085115 25 112 0.0 0.0 0.00 0.00 0.00 78 1008.9